Terminal Aerodrome Forecast
Issued by NWS

Home | Current Version | Previous Version | Text Only | Print | Product List | Glossary Off
Versions: 1 2 3 4 5 6 7 8 9 10 11 12 13 14 15 16 17 18 19 20 21 22 23 24 25 26 27 28 29 30 31 32 33 34

000
FTUS43 KLOT 142300
TAFDPA
TAF
KDPA 142340Z 1500/1524 23008KT P6SM SKC
     FM150200 21003KT P6SM SCT120 SCT250
     FM151500 25006KT P6SM -RA BKN040 BKN080 BKN120
     FM151800 28008KT 6SM -RA SCT010 BKN015 OVC035
     FM152100 35010KT P6SM SCT012 BKN020 BKN040=

USA.gov is the U.S. government's official web portal to all federal, state and local government web resources and services.